Regional Weather Roundup
Issued by NWS Newport/Morehead, NC

Current Version | Previous Version | Graphics & Text | Print | Product List | Glossary Off
Versions: 1 2 3 4 5 6 7 8 9 10 11 12 13 14 15 16 17 18 19 20 21 22 23 24 25 26 27 28 29 30 31 32 33 34 35 36 37 38 39 40 41 42 43 44 45 46 47 48 49 50

000
ASUS42 KMHX 220822
RWRMHX
WEATHER ROUNDUP FOR EASTERN NORTH CAROLINA
NATIONAL WEATHER SERVICE NEWPORT/MOREHEAD CITY NC
400 AM EDT WED OCT 22 2014

NOTE: "FAIR" INDICATES FEW OR NO CLOUDS BELOW 12,000 FEET
WITH NO SIGNIFICANT WEATHER AND/OR OBSTRUCTIONS TO VISIBILITY

NCZ015>017-031-032-045>047-102-103-220900-
NORTH COAST

CITY           SKY/WX    TMP DP  RH WIND       PRES   REMARKS
EDENTON        CLOUDY    55  52  89 N7        29.83F
ELIZABETH CITY MOCLDY    57  52  83 NW9       29.81F
KITTY HAWK     MOSUNNY   59  56  91 NW6       29.78S
MANTEO         MOCLDY    59  55  87 NW7       29.80S

$$

NCZ045>047-081-094-103-104-220900-
CENTRAL COAST

CITY           SKY/WX    TMP DP  RH WIND       PRES   REMARKS
FRISCO         MOCLDY    62  54  74 N8        29.80F
SWANQUARTER      N/A     57 N/A N/A NW12      29.79S

$$

NCZ095-097-098-100-101-220900-
SOUTHERN COAST

CITY           SKY/WX    TMP DP  RH WIND       PRES   REMARKS
BEAUFORT       MOCLDY    60  50  69 NW14      29.84S
CEDAR ISLAND     N/A     61 N/A N/A NW17G26   29.85S
JACKSONVILLE   MOCLDY    57  43  59 NW10      29.87S
PINEY ISLAND   PTSUNNY   61  49  64 NW14      29.83S
WILMINGTON     MOCLDY    57  45  64 NW13      29.89S


$$

NCZ011>013-027>030-043-044-078>080-089-090>093-098-220900-
COASTAL PLAIN

CITY           SKY/WX    TMP DP  RH WIND       PRES   REMARKS
AHOSKIE        MOCLDY    51  49  94 CALM      29.87S
CLINTON        PTCLDY    55  44  67 NW6       29.92S
ELIZABETHTOWN  PTCLDY    54  42  63 NW5       29.92S
GOLDSBORO      PTCLDY    55  46  70 NW12      29.88F
GREENVILLE     MOCLDY    54  46  76 NW5       29.90S
HAVELOCK       CLOUDY    58  47  66 NW12      29.86S
KENANSVILLE    MOCLDY    54  41  62 NW7       29.90F
KINSTON        MOCLDY    55  44  67 NW6       29.89S
NEW BERN       PTCLDY    57  44  62 NW7       29.88R
RICHLANDS      MOCLDY    55  41  58 CALM      29.89F
ROCKY MOUNT    CLOUDY    53  43  68 NW9       29.90S
WASHINGTON     MOCLDY    53  46  77 NW6       29.87R
WHITEVILLE     PTCLDY    55  42  61 NW3       29.92R

$$

AMZ130-135-150-152-154-156-158-170-250-252-270-ANZ085-086-088-633-658-670-220900-
MARINE OBSERVATIONS

STATION/POSITION TIME  TEMP    WIND        PRES    WAVE   SWELL
                       AIR SEA DIR/SP/G            HT/PER HT/PER
                 (UTC) (F)     (DEG/KT/KT) (MB)    (FT/S) (FT/S)
CHESAPEAKE LIGHT 0800   61     280/ 20/ 21 1009.7
64 E VA BEACH    0800   62 69  290/ 17/ 23 1008.6    4/ 8   2/ 8
DUCK             0800   59 69  310/ 12/ 15 1007.8
2 E DUCK         0800                        N/A     2/11   2/11
10 NE DUCK       0800      71                N/A     2/ 3
OREGON INLET     0800   61 68  300/  9/ 12 1008.4
13E OREGON INLT  0800      74                N/A     4/ 4
HATTERAS CG      0800   63 72  320/ 14/ 16 1009.5
DIAMOND BUOY     0800   66     340/ 16/ 17 1008.7    3/ 4   2/ 8
17 S OCRACOKE    0700          VRB 17/ 21  1009.5
CAPE LOOKOUT     0800   61     340/ 19/ 22 1010.2
BEAUFORT LAB     0800   61 70  330/  7/ 13 1009.9
30 SE NEW RIVER  0800   65 76  340/ 19/ 25 1009.9    4/ 5   2/ 8
5 SE WRIGHTSVLE  0800   59 73  330/ 17/ 21   N/A
225 S CAPE HAT   0708   77 79  280/ 14/ 19 1010.7    3/ 9   2/ 9
41 SE CHARLESTON 0800   70 79  360/ 19/ 23 1011.4    3/ 5   2/ 8

$$



USA.gov is the U.S. government's official web portal to all federal, state and local government web resources and services.